Eielson AFB, AK

12:26 AM AKST on February 24, 2017 (GMT -0900)
Eielson Air Force Base

Weather History for PAEI - April, 2014

Change the Weather History Date:

Thursday, April 10, 2014

  Actual Average Record
Temperature  
Mean Temperature 6 °F -  
Max Temperature 28 °F 35 °F 59 °F (1997)
Min Temperature -17 °F 12 °F -18 °F (1985)
Degree Days  
Heating Degree Days 60    
Moisture  
Dew Point -5 °F    
Average Humidity 58    
Maximum Humidity 78    
Minimum Humidity 31    
Precipitation  
Precipitation 0.00 in - - ()
Sea Level Pressure  
Sea Level Pressure 30.09 in    
Wind  
Wind Speed 3 mph (North)    
Max Wind Speed 7 mph    
Max Gust Speed -    
Visibility 10 miles    
Events      
Averages and records for this station are not official NWS values.
T = Trace of Precipitation, MM = Missing Value Source: NWS Daily Summary

Daily Weather History Graph

Daily Weather History Graph

Search for Another Location

Airport or City:

Trip Planner

Search our weather history database for the weather conditions in past years. The results will help you decide how hot, cold, wet, or windy it might be!

Date:

Astronomy

Apr. 10, 2014 Rise Set
Actual Time 6:31 AM AKDT 9:09 PM AKDT
Civil Twilight 5:37 AM AKDT 10:04 PM AKDT
Nautical Twilight 4:21 AM AKDT 11:22 PM AKDT
Astronomical Twilight 2:22 AM AKDT 1:17 AM AKDT
Moon 3:37 PM AKDT (4/10) 5:31 AM AKDT (4/10)
Length of Visible Light 16h 26m
Length of Day
14h 37m
Waxing Gibbous, 81% of the Moon is Illuminated
Apr 10
Waxing Gibbous
Apr 14
Full
Apr 21
Last Quarter
Apr 28
New
May 6
First Quarter

Hourly Weather History & Observations

Time (AKDT) Temp. Windchill Dew Point Humidity Pressure Visibility Wind Dir Wind Speed Gust Speed Precip Events Conditions
12:58 AM -4.0 °F -12.4 °F -10.8 °F 72% 30.12 in 10.0 mi Variable 3.5 mph - N/A   Clear
1:58 AM -4.5 °F -15.2 °F -10.8 °F 74% 30.12 in 10.0 mi Variable 4.6 mph - N/A   Clear
2:58 AM -4.5 °F - -11.4 °F 72% 30.12 in 10.0 mi Calm Calm - N/A   Clear
3:58 AM -8.0 °F - -13.7 °F 76% 30.12 in 10.0 mi Calm Calm - N/A   Clear
4:58 AM -13.9 °F - -18.9 °F 78% 30.13 in 10.0 mi Calm Calm - N/A   Clear
5:58 AM -11.4 °F - -16.8 °F 77% 30.12 in 10.0 mi Calm Calm - N/A   Clear
6:58 AM -17.1 °F - -23.1 °F 74% 30.13 in 10.0 mi Calm Calm - N/A   Clear
7:58 AM -13.0 °F - -19.5 °F 73% 30.14 in 10.0 mi Calm Calm - N/A   Clear
8:58 AM -4.5 °F - -12.1 °F 70% 30.13 in 10.0 mi Calm Calm - N/A   Clear
9:58 AM 0.9 °F - -8.1 °F 66% 30.12 in 10.0 mi Calm Calm - N/A   Clear
10:58 AM 6.8 °F -2.0 °F -5.1 °F 58% 30.12 in 10.0 mi North 4.6 mph - N/A   Clear
11:58 AM 13.6 °F 4.6 °F -0.8 °F 53% 30.11 in 10.0 mi Variable 5.8 mph - N/A   Clear
12:58 PM 18.1 °F 10.0 °F 1.2 °F 48% 30.10 in 10.0 mi North 5.8 mph - N/A   Clear
1:58 PM 21.2 °F 12.6 °F 2.3 °F 44% 30.08 in 10.0 mi Variable 6.9 mph - N/A   Clear
2:58 PM 23.0 °F 17.0 °F 3.7 °F 44% 30.08 in 10.0 mi NNW 4.6 mph - N/A   Clear
3:58 PM 24.8 °F 17.9 °F 3.6 °F 40% 30.06 in 10.0 mi North 5.8 mph - N/A   Clear
4:58 PM 25.7 °F 19.0 °F 3.7 °F 39% 30.05 in 10.0 mi Variable 5.8 mph - N/A   Clear
5:58 PM 28.2 °F 24.4 °F 1.2 °F 31% 30.04 in 10.0 mi NNE 3.5 mph - N/A   Clear
6:58 PM 27.1 °F 23.2 °F 1.4 °F 33% 30.04 in 10.0 mi NNW 3.5 mph - N/A   Clear
7:58 PM 26.6 °F 21.2 °F 2.3 °F 35% 30.05 in 10.0 mi North 4.6 mph - N/A   Clear
8:58 PM 23.5 °F 17.6 °F 2.5 °F 40% 30.05 in 10.0 mi North 4.6 mph - N/A   Clear
9:58 PM 16.7 °F - 2.8 °F 55% 30.06 in 10.0 mi Calm Calm - N/A   Clear
10:58 PM 10.4 °F - 1.9 °F 69% 30.06 in 10.0 mi Calm Calm - N/A   Clear
11:58 PM 7.9 °F - 1.8 °F 76% 30.07 in 10.0 mi Variable 1.2 mph - N/A   Clear